Regional Weather Roundup
Issued by NWS Little Rock, AR

Home | Current Version | Previous Version | Text Only | Print | Product List | Glossary On
Versions: 1 2 3 4 5 6 7 8 9 10 11 12 13 14 15 16 17 18 19 20 21 22 23 24 25 26 27 28 29 30 31 32 33 34 35 36 37 38 39 40 41 42 43 44 45 46 47 48 49 50
000
ASUS44 KLZK 080505
RWRLZK

WEATHER ROUNDUP FOR ARKANSAS
NATIONAL WEATHER SERVICE LITTLE ROCK AR
1100 PM CST SUN FEB 07 2016

NOTE: "FAIR" INDICATES FEW OR NO CLOUDS BELOW 12,000 FEET WITH NO
SIGNIFICANT WEATHER AND/OR OBSTRUCTIONS TO VISIBILITY.

ARZ001-003-010-029-080600-
NORTHWEST ARKANSAS

CITY           SKY/WX    TMP DP  RH WIND       PRES   REMARKS
FAYETTEVILLE   MOCLDY    42  17  36 NW10G21   30.09S
FORT SMITH     CLOUDY    44  25  47 W9        30.11F
HARRISON       CLEAR     41  15  35 W10       30.02F
BENTONVILLE    PTCLDY    43  16  33 NW14G22   30.09S
ROGERS         PTCLDY    42  15  33 NW16      30.08R
SILOAM SPGS    CLOUDY    43  16  33 NW13      30.10S
HIGHFILL       MOCLDY    43  17  35 NW15G23   30.08S
$$

ARZ004-005-016-080600-
NORTH CENTRAL ARKANSAS

CITY           SKY/WX    TMP DP  RH WIND       PRES   REMARKS
BATESVILLE     PTCLDY    46  25  42 W7        30.01S
FLIPPIN        CLEAR     45  16  31 W8        30.00S
MTN HOME       CLEAR     43  19  38 W6        29.99F
$$

ARZ040-041-080600-
WEST CENTRAL ARKANSAS

CITY           SKY/WX    TMP DP  RH WIND       PRES   REMARKS
MENA           MOCLDY    45  32  61 W7        30.11S
MOUNT IDA      PTCLDY    47  27  45 CALM      30.06S
$$

ARZ009-017-025-026-028-080600-
NORTHEAST ARKANSAS

CITY           SKY/WX    TMP DP  RH WIND       PRES   REMARKS
CORNING        FAIR      45  28  53 W12       29.96S
JONESBORO      CLOUDY    47  29  49 W6        29.97F
NEWPORT        CLOUDY    45  30  55 SW5       30.00F
WALNUT RIDGE   PTCLDY    45  25  45 NW10      29.96F
BLYTHEVILLE    CLOUDY    48  32  53 W13       29.95F
$$

ARZ022-023-033-042-044-080600-
CENTRAL ARKANSAS

CITY           SKY/WX    TMP DP  RH WIND       PRES   REMARKS
LITTLE ROCK    CLOUDY    53  27  36 NW13      30.05F
N LITTLE ROCK  CLOUDY    50  30  45 W6        30.05F
JACKSONVILLE   CLOUDY    49  30  48 W8        30.03F
SEARCY         MOCLDY    48  31  51 W6        30.03F
HOT SPRINGS    CLOUDY    50  29  44 W3        30.08S
RUSSELLVILLE   CLOUDY    46  28  49 W7        30.06S
CLINTON        FAIR      32  30  93 CALM      30.05R
$$

ARZ036-080600-
EAST ARKANSAS

CITY           SKY/WX    TMP DP  RH WIND       PRES   REMARKS
WEST MEMPHIS   CLEAR     47  34  60 W5        29.98S
$$

ARZ050-053-066-070-073-080600-
SOUTHWEST ARKANSAS

CITY           SKY/WX    TMP DP  RH WIND       PRES   REMARKS
ARKADELPHIA    FAIR      49  32  52 W6        30.09F
CAMDEN         PTCLDY    46  28  49 W3        30.10S
TEXARKANA      CLEAR     50  33  52 W7        30.13S
EL DORADO      CLEAR     46  29  51 W3        30.10F
DE QUEEN       CLEAR     37  31  78 SW3       30.12S
$$

ARZ056-057-069-080600-
SOUTHEAST ARKANSAS

CITY           SKY/WX    TMP DP  RH WIND       PRES   REMARKS
PINE BLUFF     PTCLDY    49  29  46 W6        30.05F
STUTTGART      PTCLDY    48  34  57 W8        30.02F
MONTICELLO     CLEAR     48  28  46 W9        30.06S

$$





USA.gov is the U.S. government's official web portal to all federal, state and local government web resources and services.